DECAYED

STARLINK-1928, 46758 (Decayed)

Orbit data source: Space-Track

STARLINK-1928, 46758 was a payload satellite owned by SpaceX/Seattle (US) in LEO that was launched on Sat, 24 Oct 2020 UTC via an FALCON 9 launch vehicle from the Air Force Eastern Test Range (AFETR). Payload-class satellites include a variety of spacecraft equipped with specific instruments for various scientific and technological missions. These include communications satellites like Starlink; space stations such as the ISS; scientific satellites like the Hubble; Earth observation satellites from companies like Planet Labs, Umbra, and HawkEye 360; GPS; miniature CubeSats for education and research; and military/defense satellites.

Not visible in the next 10 days
Identifier
46758, 2020-074V
Orbit
Decayed
Country
Flag of USUS
Related business
Manufacturer
SpaceX/Seattle
Mission
Decayed Commercial Communications
Bus & Motor
STARLINK, Unknown motor
Mass
260 kg wet, ~248 kg dry
Launch date (UTC)
2020-10-24 (6 years ago)
Launch vehicle
FALCON 9
Launch site
Air Force Eastern Test Range (AFETR)
Object type
Payload
Rocket body
Debris
Shape & HBR
Box + 1 Pan, 10.1 m
Radar Cross Section
13.562 m², Large (>1 m²)

Expand to show TLE details & history
Last TLE update: 3 months ago

TLE from 3 months ago
0 STARLINK-1928
1 46758U 20074V   26176.07781071  .08116360  12348-4  49748-3 0  9998
2 46758  53.0193 102.9547 0007931 247.7817 112.2389 16.41271005314211
Epoch: 2026-06-25T01:52Z
TLE epoch observation values (Epoch: 2026-06-25T01:52:02.845Z)
Latitude
0.00001°
Longitude
161.71701°
Altitude
165.317 km
Speed
7.807 km/s
True Right ascension
06h 51m 49s
True Declination
0° 00' 00"
Sunlit
Object was in daylight at epoch
Visualization orbit readout
Latitude
Unknown
Longitude
Unknown
Altitude
Unknown
Speed
Unknown
Apparent Right ascension
Unknown
Apparent Declination
Unknown
Sunlit
N/A
Visualization observer readout
Local Sidereal Time
03:32:27
Azimuth
Unknown
Elevation
Unknown
Doppler factor
Unknown
Orbital elements
Apogee altitude
167.903 km
Perigee altitude
157.528 km
Semi-major axis
6,540.853 km
Eccentricity
0.00079
Inclination
53.0193°
RAAN
102.9547°
Arg. of periapsis
247.7817°
True anomaly
112.32299°
Mean anomaly
112.2389°
Eccentric anomaly
112.28095°
Mean motion
4.10291 °/min
Orbital period
87.74 mins
BSTAR
0.00049748
Loading maneuver chart data...
Computing Atmospheric mass density...

Documentation

Showing up to 5 results
|